星链-32625 (STARLINK-32625)

导读

STARLINK-32625是美国SpaceX公司于2024年11月30日发射的星链第二代低轨互联网卫星,属于第二代主力型号,运行于近地轨道,配备增强型相控阵天线与激光星间链路,单星容量超100Gbps,可支持用户终端超1000Mbps下载速率,为全球提供低延迟宽带接入,服务偏远地区互联网、应急通信等场景,设计寿命5-7年,退役后将再入大气层销毁。

基本信息
目录编号:
62154
目录名称:
STARLINK-32625
国际标识:
2024-224R
轨道中心:
EARTH
卫星名称:
星链-32625
卫星全名:
星链-32625 (STARLINK-32625)
卫星状态:
在轨 (已飞行564 天)
发射日期:
2024-11-30 UTC
国别 :
美国 (US)
星等 :
--
轨道信息
数据来源 国际轨道数据
星历时间: 2026-06-17T10:57:52+0800
16小时前
查看轨道信息
半长轴: 6861.122km
偏心率: 0.0002224
轨道倾角: 42.997°
近地点辐角 264.257°
升交点赤经 316.854°
平近点角 95.802°
近地点: 481.459km
远地点: 484.511km
周期: 94.265分钟
每日圈数: 15.276016
详细信息
固有亮度:
5
最大亮度:
2.5
卫星平台:
Starlink V1.0
覆盖范围:
全球
运营商:
太空探索技术公司
运营商所在国:
美国
制造商(研发单位):
太空探索技术公司
制造商所在国:
美国
使用方式:
暂无
卫星简介
Starlink 计划是 SpaceX 推出的全球卫星互联网项目,通过发射低轨道卫星,为全球尤其是偏远地区提供高速、低延迟的互联网服务。自 2019 年起,Starlink 已部署数千颗卫星,旨在缩小全球数字鸿沟,推动互联网普及。该项目还为军事、航空等行业提供通信支持,带来广泛经济效益。
2D轨道图
3D轨道图
轨道高度分析图
轨道倾角分析图
轨道综合分析图
查看轨道综合分析图